轨道通信卫星FM36星 (ORBCOMM FM36)

导读 | 星芒AI

ORBCOMM FM36 是 ORBCOMM 公司制造的一颗低轨卫星,属于其机器对机器(M2M)通信网络的一部分。该卫星主要用于提供全球范围内的物联网(IoT)数据传输服务,支持远程监控、物流跟踪和资产管理等应用。FM36 运行在低地球轨道,通过星载通信系统与地面终端进行数据交换,具备低功耗、高可靠性和广覆盖的特点。该卫星是 ORBCOMM 卫星星座的重要成员,助力企业实现高效、实时的远程通信与数据管理。

基本信息
目录编号:
25984
目录名称:
ORBCOMM FM 36
国际标识:
1999-065E
轨道中心:
EARTH
卫星名称:
轨道通信卫星FM36星
卫星全名:
轨道通信卫星FM36星 (ORBCOMM FM36)
卫星状态:
在轨 (已飞行9509 天)
发射日期:
1999-12-04 UTC
国别 :
(ORB)
星等 :
--
轨道信息
数据来源 国际轨道数据 AOE轨道数据
星历时间 2025-12-15T16:06:10+0800
17小时前
查看轨道信息
2025-12-14T19:00:00+0800
1天前
查看轨道信息
半长轴 7140.871km 7140.879km
偏心率 0.0000914 0.0000853
轨道倾角 45.039° 45.039°
近地点辐角 154.289° 142.559°
升交点赤经 312.077° 316.253°
平近点角 205.800° 338.949°
近地点 762.083km 762.134km
远地点 763.389km 763.354km
周期 100.089分钟 100.089分钟
每日圈数 14.387191 14.387167
详细信息
固有亮度:
8
最大亮度:
7.5
平衡模式:
三轴稳定
覆盖范围:
全球
运营商:
轨道通信公司
运营商所在国:
美国
制造商(研发单位):
轨道ATK公司
制造商所在国:
美国
使用方式:
暂无
卫星简介
轨道通信FM(Orbcomm FM)是一系列低地球轨道通信卫星,由美国卫星通信公司 Orbcomm运营。 截至2015年12月,已有63颗此类卫星绕地球运行。该卫星已退役。
2D轨道图
3D轨道图
轨道高度分析图
轨道倾角分析图
轨道综合分析图
查看轨道综合分析图